Location: Malvern Link
(52.1333°N, 2.3000°W)
Time: 17:10:46
(UTC+00:00)

SPROUT - Pass Details

Date: 30 June 2022
Orbit: 588 x 598 km, 97.9° (Epoch: 09 August)

Event Time Altitude Azimuth Distance (km) Brightness Sun altitude
Exits shadow 00:12:01 16° 135° (SE) 1,581 ? -14.7°
Maximum altitude 00:15:06 44° 68° (ENE) 821 ? -14.7°
Drops below altitude 10° 00:19:04 10° 357° (N) 1,931 ? -14.7°
Sets 00:21:19 0° 351° (N) 2,838 ? -14.7°
